OE5RLP-14 Weather Reports


Display with metric or nautical units.
time (UTC)temp
F
wind
direction
speed
MPH
gust
MPH
rain 1hr
in
rain 24hr
in
rain mn
in
humidity
%
barometer
mb
20260504023435 63 261 4.0 6.0 0.00 0.00 0.00 47 1015.4
20260504022431 62 267 3.0 6.0 0.00 0.00 0.00 47 1015.3
20260504021430 63 299 3.0 4.0 0.00 0.00 0.00 46 1015.1
20260504020427 62 291 3.0 4.0 0.00 0.00 0.00 47 1015.1
20260504015426 61 0.0 0.0 0.00 0.00 0.00 51 1015.1
20260504014444 61 207 0.0 1.0 0.00 0.00 0.00 49 1015.0
20260504013427 61 0.0 0.0 0.00 0.00 0.00 50 1014.9
20260504012446 60 0.0 0.0 0.00 0.00 0.00 53 1014.7
20260504011442 60 0.0 0.0 0.00 0.00 0.00 53 1014.9
20260504010441 61 184 3.0 3.0 0.00 0.00 0.00 51 1014.6
20260504005436 62 199 2.0 2.0 0.00 0.00 0.00 51 1014.6
20260504004435 61 212 3.0 3.0 0.00 0.00 0.00 52 1014.4
20260504003452 61 175 2.0 3.0 0.00 0.00 0.00 53 1014.6
20260504002448 61 175 2.0 3.0 0.00 0.00 0.00 53 1014.5
20260504001447 62 157 2.0 3.0 0.00 0.00 0.00 53 1014.5
20260504000425 63 253 1.0 2.0 0.00 0.00 0.00 52 1014.2
20260503235426 64 222 2.0 3.0 0.00 0.00 0.00 51 1014.2
20260503234444 63 284 4.0 9.0 0.00 0.00 0.00 53 1014.4
20260503233443 63 288 6.0 7.0 0.00 0.00 0.00 54 1014.3
20260503232440 63 305 6.0 7.0 0.00 0.00 0.00 51 1014.2
20260503231438 65 296 5.0 8.0 0.00 0.00 0.00 43 1014.0
20260503230435 66 303 3.0 4.0 0.00 0.00 0.00 41 1013.8
20260503225433 65 0.0 0.0 0.00 0.00 0.00 43 1013.8
20260503224431 63 0.0 0.0 0.00 0.00 0.00 46 1013.4
20260503223432 64 188 1.0 2.0 0.00 0.00 0.00 44 1013.2
20260503222428 65 115 2.0 4.0 0.00 0.00 0.00 42 1013.2
20260503221425 66 0.0 0.0 0.00 0.00 0.00 41 1013.2
20260503220417 66 0.0 0.0 0.00 0.00 0.00 40 1013.2
20260503215445 67 172 1.0 3.0 0.00 0.00 0.00 40 1013.0
20260503214442 67 138 2.0 4.0 0.00 0.00 0.00 39 1013.1
20260503213501 67 0.0 0.0 0.00 0.00 0.00 39 1013.1
20260503212436 68 0.0 0.0 0.00 0.00 0.00 38 1013.2
20260503211439 69 210 2.0 3.0 0.00 0.00 0.00 36 1013.0
20260503210431 70 185 5.0 7.0 0.00 0.00 0.00 36 1012.9
20260503205450 71 191 5.0 8.0 0.00 0.00 0.00 35 1012.9
20260503204426 70 136 5.0 9.0 0.00 0.00 0.00 35 1013.0
20260503203429 70 152 6.0 9.0 0.00 0.00 0.00 36 1013.0
20260503202427 70 226 5.0 13.0 0.00 0.00 0.00 36 1012.9
20260503201427 70 240 6.0 10.0 0.00 0.00 0.00 37 1012.9
20260503200444 68 156 5.0 7.0 0.00 0.00 0.00 39 1013.1
20260503195441 69 125 4.0 7.0 0.00 0.00 0.00 39 1013.2
20260503194540 69 173 5.0 7.0 0.00 0.00 0.00 37 1013.1
20260503193440 70 221 4.0 7.0 0.00 0.00 0.00 37 1013.0
20260503192433 71 158 6.0 11.0 0.00 0.00 0.00 36 1013.1
20260503191432 71 171 4.0 8.0 0.00 0.00 0.00 36 1012.8
20260503190427 71 169 5.0 13.0 0.00 0.00 0.00 37 1012.9
20260503185448 69 152 8.0 13.0 0.00 0.00 0.00 40 1012.9
20260503184427 68 156 4.0 6.0 0.00 0.00 0.00 44 1012.8
20260503183427 68 140 4.0 8.0 0.00 0.00 0.00 47 1012.7
20260503182443 69 136 4.0 4.0 0.00 0.00 0.00 46 1012.6
20260503181525 70 138 1.0 3.0 0.00 0.00 0.00 45 1012.6
20260503180502 71 84 4.0 6.0 0.00 0.00 0.00 47 1012.5
20260503175437 71 103 4.0 6.0 0.00 0.00 0.00 46 1012.5
20260503174434 71 97 4.0 6.0 0.00 0.00 0.00 45 1012.6
20260503173433 72 92 3.0 4.0 0.00 0.00 0.00 45 1012.6
20260503172450 73 90 4.0 8.0 0.00 0.00 0.00 43 1012.5
20260503171427 73 83 6.0 9.0 0.00 0.00 0.00 43 1012.6
20260503170447 74 91 6.0 9.0 0.00 0.00 0.00 41 1012.6
20260503150426 77 31 18.0 27.0 0.00 0.00 0.00 37 1013.2
20260503130445 77 92 8.0 11.0 0.00 0.00 0.00 36 1015.0
20260503110442 72 91 6.0 9.0 0.00 0.00 0.00 50 1016.9
20260503090440 64 323 2.0 3.0 0.00 0.00 0.00 57 1018.3
20260503081445 62 99 3.0 3.0 0.00 0.00 0.00 60 1018.4
20260503080425 61 307 2.0 2.0 0.00 0.00 0.00 62 1018.6
20260503072442 59 313 2.0 4.0 0.00 0.00 0.00 65 1018.5
20260503071438 59 352 3.0 4.0 0.00 0.00 0.00 62 1018.6
20260503070437 58 101 2.0 3.0 0.00 0.00 0.00 62 1018.5
20260503054443 57 0.0 0.0 0.00 0.00 0.00 61 1018.2
20260503053440 59 0.0 0.0 0.00 0.00 0.00 59 1018.3
20260503052437 60 149 1.0 1.0 0.00 0.00 0.00 60 1018.0
20260503051434 58 150 1.0 2.0 0.00 0.00 0.00 60 1018.0
20260503050431 57 150 1.0 2.0 0.00 0.00 0.00 63 1017.9
20260503045429 56 130 2.0 3.0 0.00 0.00 0.00 62 1018.1
20260503044427 55 133 3.0 4.0 0.00 0.00 0.00 65 1018.1
20260503043423 53 132 2.0 3.0 0.00 0.00 0.00 68 1018.0
20260503042424 51 139 3.0 3.0 0.00 0.00 0.00 71 1017.9
20260503041425 50 158 2.0 3.0 0.00 0.00 0.00 73 1017.9
20260503040445 48 168 4.0 4.0 0.00 0.00 0.00 77 1018.0
20260503035442 46 145 4.0 4.0 0.00 0.00 0.00 79 1017.9
20260503034439 46 159 3.0 3.0 0.00 0.00 0.00 79 1017.8
20260503033436 46 153 3.0 3.0 0.00 0.00 0.00 79 1017.9
20260503032435 46 157 3.0 4.0 0.00 0.00 0.00 77 1017.8
20260503031431 47 134 4.0 4.0 0.00 0.00 0.00 76 1017.8
20260503030428 47 157 4.0 6.0 0.00 0.00 0.00 74 1018.0
20260503025427 48 136 2.0 3.0 0.00 0.00 0.00 74 1017.9
20260503024424 48 153 2.0 2.0 0.00 0.00 0.00 75 1018.0